Simultaneous Nadir Overpasses (SNOs) Predictions

Prediction of SNOs between METOP-A and TERRA Satellite Orbit:

Table of predicted SNOs for the next 14.0 days since TLE Epoch: 9/3/2016
Index Date (METOP-A) Time (METOP-A) Lat,Lon (METOP-A) SZA (METOP-A ) Date (TERRA) Time (TERRA) Lat,Lon (TERRA) SZA (TERRA ) Distance(km) Time Diff (sec)
1 09/05/2016 22:19:38 81.28,-108.26 77.70 09/05/2016 22:20:35 81.27,-108.44 77.70 3.33 57
2 09/05/2016 23:10:18 -81.29, 59.46 102.24 09/05/2016 23:10:01 -81.29, 59.50 102.25 0.61 17
3 09/08/2016 17:54:01 81.29, -41.67 78.80 09/08/2016 17:54:47 81.28, -41.81 78.80 2.44 46
4 09/08/2016 18:44:41 -81.29, 126.05 101.14 09/08/2016 18:44:13 -81.30, 126.14 101.14 1.83 28
5 09/11/2016 13:28:24 81.29, 24.90 79.91 09/11/2016 13:28:59 81.29, 24.79 79.91 1.87 35
6 09/11/2016 14:19:05 -81.29,-167.77 100.08 09/11/2016 14:18:26 -81.29,-167.62 100.08 2.57 39
7 09/14/2016 09:02:47 81.28, 91.05 80.98 09/14/2016 09:03:11 81.28, 90.98 80.98 1.43 24




NCC Satellite Simultaneous Nadir Overpasses (SNOs) Prediction Service
